[[{"header":{"parameterUnit":"m.s-1","parameterCategory":1,"la1":30.2991,"la2":30.254,"lo1":-89.0895,"lo2":-89.0444,"dy":0.0017,"dx":0.0017,"nx":28,"ny":28,"refTime":"2024-03-16T21:00:00:Z","depth":0,"parameterNumber":2,"parameterNumberName":"U-component_of_WINDS"},"data":[0,0,0,0,0,0,0,0,0,0,0,0,0,0,0,0,0,0,0,0,0,0,0,0,0,0,0,0,0,0,0,0,0,0,0,0,0,0,0,0,0,0,0,0,0,0,0,0,0,0,0,0,0,0,0,0,0,0,-1.6061,-1.606,0,-1.6028,-1.6028,-1.6028,-1.5992,-1.5991,-1.5991,-1.599,-1.5958,-1.5958,-1.5957,0,0,0,0,0,0,0,0,0,0,0,0,0,-1.6094,-1.6093,-1.6061,-1.606,-1.606,-1.6028,-1.6028,-1.6027,-1.5992,-1.5991,-1.599,-1.599,-1.5958,-1.5958,-1.5957,0,0,0,0,0,0,0,0,0,0,0,0,0,-1.6072,-1.6093,-1.6061,-1.6038,-1.6036,-1.6028,-1.6028,-1.6027,-1.5992,-1.5991,-1.599,-1.599,-1.5958,-1.5958,-1.5957,-1.5969,0,0,-1.5955,-1.5955,0,0,0,0,0,0,0,0,-1.6073,-1.6071,-1.6042,-1.604,-1.6037,-1.6013,-1.6028,-1.6008,-1.5992,-1.6009,-1.599,-1.5989,-1.5977,-1.5975,-1.597,-1.5968,-1.5966,-1.5955,-1.5955,-1.5955,-1.5955,0,0,0,0,0,0,0,-1.6075,-1.6072,-1.6048,-1.6042,-1.6039,-1.603,-1.6027,-1.6024,-1.5998,-1.6007,-1.6004,-1.6001,-1.5976,-1.5971,-1.5969,-1.5966,-1.5955,-1.5955,-1.5954,-1.5954,-1.5974,-1.5975,0,0,0,0,0,0,-1.608,-1.6074,-1.6049,-1.6047,-1.6054,-1.603,-1.6026,-1.6022,-1.5998,-1.5993,-1.6002,-1.6,-1.5972,-1.597,-1.5968,-1.5983,-1.5955,-1.5954,-1.5954,-1.5973,-1.5974,-1.5975,0,0,0,0,0,0,-1.608,-1.6078,-1.605,-1.606,-1.6055,-1.6031,-1.6026,-1.6021,-1.6017,-1.5993,-1.5989,-1.6002,-1.5972,-1.5969,-1.597,-1.5981,-1.5954,-1.5953,-1.5972,-1.5974,-1.5975,-1.601,0,0,0,0,0,0,-1.6082,-1.6078,-1.6082,-1.606,-1.6055,-1.6052,-1.6027,-1.6021,-1.6016,-1.6013,-1.5992,-1.5988,-1.5971,-1.5971,-1.5969,-1.598,-1.5953,-1.5971,-1.5973,-1.5974,-1.6008,-1.6013,-1.6017,0,0,0,0,0,-1.6083,-1.6093,-1.6082,-1.608,-1.6059,-1.6052,-1.605,-1.6029,-1.6017,-1.6021,-1.6006,-1.5989,-1.598,-1.5971,-1.5969,-1.5979,-1.597,-1.5972,-1.5974,-1.6006,-1.6012,-1.6017,0,0,0,0,0,0,-1.6117,-1.609,-1.6078,-1.6081,-1.6069,-1.6046,-1.6051,-1.6036,-1.6027,-1.6025,-1.6,-1.5996,-1.6,-1.5989,-1.598,-1.5991,-1.5973,-1.5974,-1.5998,-1.6003,-1.6007,-1.601,-1.5953,0,0,0,0,0,-1.6125,-1.6121,-1.6098,-1.6103,-1.6098,-1.6076,-1.6072,-1.6057,-1.6044,-1.6039,-1.6024,-1.6013,-1.6008,-1.6005,-1.5998,-1.6006,-1.6003,-1.6013,-1.6017,-1.6021,-1.6023,-1.6028,-1.6033,-1.5982,-1.5982,-1.5982,0,0,-1.6141,-1.6126,-1.6125,-1.611,-1.6099,-1.6097,-1.6072,-1.607,-1.6068,-1.6039,-1.6039,-1.6028,-1.6014,-1.6019,-1.602,-1.601,-1.6036,-1.6023,-1.6026,-1.6026,-1.6031,-1.6036,-1.604,-1.5983,-1.5983,-1.5982,0,0,-1.617,-1.6158,-1.6161,-1.6152,-1.6136,-1.6121,-1.6122,-1.6102,-1.6094,-1.6093,-1.6072,-1.607,-1.6061,-1.6052,-1.6047,-1.6074,-1.6059,-1.6073,-1.6095,-1.6101,-1.6105,-1.6109,-1.612,-1.6124,-1.6075,-1.6075,-1.6075,0,-1.6192,-1.6188,-1.6165,-1.6165,-1.616,-1.6134,-1.6138,-1.613,-1.6113,-1.611,-1.6099,-1.6089,-1.6077,-1.6081,-1.6088,-1.6083,-1.6085,-1.6075,-1.6106,-1.611,-1.6113,-1.6123,-1.6128,-1.6077,-1.6076,-1.6076,-1.6076,0,-1.6217,-1.6214,-1.6219,-1.6204,-1.6199,-1.6201,-1.618,-1.6178,-1.6164,-1.6151,-1.6152,-1.6138,-1.6129,-1.6128,-1.6115,-1.6131,-1.6125,-1.6111,-1.6092,-1.612,-1.613,-1.6133,-1.608,-1.6079,-1.6078,-1.6078,0,0,-1.6265,-1.6239,-1.6242,-1.6235,-1.6217,-1.6215,-1.6216,-1.6208,-1.6207,-1.6197,-1.6199,-1.6192,-1.6179,-1.6173,-1.6158,-1.6163,-1.6188,-1.6148,-1.6147,-1.6157,-1.6207,-1.6219,-1.6224,-1.6177,-1.6178,-1.6179,-1.6209,0,-1.6292,-1.6293,-1.6274,-1.6281,-1.6279,-1.6255,-1.6257,-1.6246,-1.6235,-1.6232,-1.6219,-1.6215,-1.6197,-1.6194,-1.6198,-1.6184,-1.6198,-1.6182,-1.618,-1.618,-1.6186,-1.6229,-1.6241,-1.627,-1.6212,-1.6213,-1.6213,0,-1.6323,-1.6315,-1.6322,-1.6305,-1.6303,-1.6305,-1.6297,-1.6294,-1.6282,-1.6273,-1.6268,-1.6251,-1.6253,-1.6234,-1.6237,-1.6227,-1.6225,-1.6219,-1.6219,-1.6219,-1.6199,-1.6231,-1.6279,-1.6284,-1.6219,-1.6218,-1.6218,0,-1.636,-1.6351,-1.6354,-1.6349,-1.6329,-1.6331,-1.6323,-1.6311,-1.6307,-1.63,-1.6298,-1.6291,-1.6288,-1.6283,-1.6266,-1.6254,-1.6272,-1.6252,-1.6266,-1.6267,-1.6271,-1.6271,-1.6321,-1.6268,-1.6268,-1.6268,-1.6268,0,-1.6392,-1.6398,-1.6371,-1.6373,-1.6379,-1.6358,-1.6364,-1.6354,-1.6343,-1.6344,-1.6322,-1.6324,-1.63,-1.6299,-1.6285,-1.6291,-1.6289,-1.6283,-1.628,-1.6286,-1.6287,-1.6285,-1.6283,-1.6269,-1.6269,-1.6269,-1.6269,0,-1.6434,-1.6416,-1.6419,-1.64,-1.6396,-1.6401,-1.6385,-1.6387,-1.6375,-1.6376,-1.6375,-1.6355,-1.6353,-1.6335,-1.6328,-1.632,-1.6331,-1.6323,-1.6335,-1.6333,-1.6349,-1.6348,-1.64,-1.6407,-1.6349,-1.6349,-1.635,0,-1.6457,-1.6461,-1.6443,-1.6441,-1.6434,-1.6433,-1.643,-1.6409,-1.6407,-1.6395,-1.6399,-1.6395,-1.639,-1.6388,-1.6374,-1.637,-1.6362,-1.6381,-1.6361,-1.6368,-1.6364,-1.6365,-1.6366,-1.6385,-1.6386,-1.6386,-1.6387,0,-1.6499,-1.649,-1.6486,-1.648,-1.6477,-1.6471,-1.6464,-1.6464,-1.6442,-1.644,-1.6438,-1.6435,-1.6429,-1.6426,-1.642,-1.6412,-1.6397,-1.6393,-1.6396,-1.6403,-1.6411,-1.6409,-1.6348,-1.6392,-1.6391,-1.6391,-1.6391,-1.6391,-1.6533,-1.6536,-1.6524,-1.6521,-1.6514,-1.6508,-1.6509,-1.6497,-1.6495,-1.6489,-1.6477,-1.6477,-1.6466,-1.6456,-1.645,-1.645,-1.6441,-1.6445,-1.6447,-1.6448,-1.6452,-1.641,-1.6449,-1.6449,-1.6448,-1.6448,-1.6448,0,-1.6575,-1.6567,-1.6564,-1.6555,-1.6553,-1.6538,-1.653,-1.653,-1.653,-1.6522,-1.6519,-1.6517,-1.6514,-1.65,-1.6497,-1.65,-1.6493,-1.65,-1.65,-1.6499,-1.646,-1.6458,-1.6506,-1.6506,-1.6506,-1.6506,-1.6506,-1.6505,-1.6597,-1.6602,-1.6593,-1.6594,-1.6586,-1.6586,-1.6583,-1.6578,-1.6571,-1.657,-1.6568,-1.6559,-1.6549,-1.6545,-1.6542,-1.6538,-1.6539,-1.6548,-1.6542,-1.6507,-1.6501,-1.6496,-1.6494,-1.6548,-1.6548,-1.6581,-1.6581,-1.6582]},{"header":{"parameterUnit":"m.s-1","parameterCategory":1,"la1":30.2991,"la2":30.254,"lo1":-89.0895,"lo2":-89.0444,"dy":0.0017,"dx":0.0017,"nx":28,"ny":28,"refTime":"2024-03-16T21:00:00:Z","depth":0,"parameterNumber":3,"parameterNumberName":"V-component_of_WINDS"},"data":[0,0,0,0,0,0,0,0,0,0,0,0,0,0,0,0,0,0,0,0,0,0,0,0,0,0,0,0,0,0,0,0,0,0,0,0,0,0,0,0,0,0,0,0,0,0,0,0,0,0,0,0,0,0,0,0,0,0,-2.4052,-2.4052,0,-2.4041,-2.4041,-2.4041,-2.4007,-2.4006,-2.4006,-2.4005,-2.3992,-2.3993,-2.3993,0,0,0,0,0,0,0,0,0,0,0,0,0,-2.4043,-2.4043,-2.4052,-2.4052,-2.4052,-2.4041,-2.4041,-2.4041,-2.4007,-2.4006,-2.4005,-2.4005,-2.3992,-2.3993,-2.3993,0,0,0,0,0,0,0,0,0,0,0,0,0,-2.4041,-2.4043,-2.4052,-2.4034,-2.4032,-2.4042,-2.4041,-2.4041,-2.4007,-2.4006,-2.4005,-2.4004,-2.3992,-2.3993,-2.3993,-2.4019,0,0,-2.3995,-2.3995,0,0,0,0,0,0,0,0,-2.4041,-2.4041,-2.4037,-2.4035,-2.4033,-2.4024,-2.4033,-2.4034,-2.4008,-2.4017,-2.4005,-2.4004,-2.4004,-2.4003,-2.4004,-2.4019,-2.4018,-2.3995,-2.3995,-2.3996,-2.3996,0,0,0,0,0,0,0,-2.4041,-2.4041,-2.4048,-2.4037,-2.4034,-2.4026,-2.4024,-2.4033,-2.4017,-2.4016,-2.4013,-2.4013,-2.4003,-2.4003,-2.4003,-2.4018,-2.3995,-2.3996,-2.3996,-2.3996,-2.4055,-2.4056,0,0,0,0,0,0,-2.4044,-2.4042,-2.4048,-2.4048,-2.4034,-2.4027,-2.4025,-2.4028,-2.4017,-2.4014,-2.4014,-2.4011,-2.4003,-2.4003,-2.4003,-2.4034,-2.3996,-2.3996,-2.3996,-2.4054,-2.4056,-2.4057,0,0,0,0,0,0,-2.4044,-2.4045,-2.4049,-2.4044,-2.4044,-2.4028,-2.4032,-2.4029,-2.4029,-2.4015,-2.4012,-2.4017,-2.4002,-2.4002,-2.4016,-2.4033,-2.3996,-2.3997,-2.4053,-2.4055,-2.4056,-2.4095,0,0,0,0,0,0,-2.4044,-2.4045,-2.4055,-2.4044,-2.4044,-2.4062,-2.4033,-2.4029,-2.4031,-2.4027,-2.4018,-2.4015,-2.4001,-2.4015,-2.4017,-2.4033,-2.3997,-2.4051,-2.4053,-2.4056,-2.4092,-2.4098,-2.4103,0,0,0,0,0,-2.4044,-2.4065,-2.4055,-2.4056,-2.4056,-2.4063,-2.4063,-2.4047,-2.4032,-2.4042,-2.4033,-2.4015,-2.4031,-2.4017,-2.4018,-2.4035,-2.405,-2.4053,-2.4055,-2.409,-2.4097,-2.4103,0,0,0,0,0,0,-2.4077,-2.4064,-2.4052,-2.4072,-2.4069,-2.4057,-2.4069,-2.4055,-2.4056,-2.4053,-2.4033,-2.4031,-2.4048,-2.4042,-2.4028,-2.406,-2.4037,-2.4041,-2.4063,-2.407,-2.4075,-2.4076,-2.3998,0,0,0,0,0,-2.4087,-2.4094,-2.4082,-2.41,-2.4099,-2.4085,-2.4087,-2.4076,-2.4072,-2.407,-2.4062,-2.4058,-2.4063,-2.4066,-2.4069,-2.4091,-2.4089,-2.4103,-2.4109,-2.4113,-2.4116,-2.4129,-2.4136,-2.4066,-2.4066,-2.4066,0,0,-2.4107,-2.4101,-2.4106,-2.4107,-2.4103,-2.4111,-2.4084,-2.4093,-2.4099,-2.4071,-2.4084,-2.4078,-2.4073,-2.4092,-2.41,-2.4088,-2.4135,-2.4117,-2.412,-2.4121,-2.4133,-2.4139,-2.4145,-2.4068,-2.4068,-2.4067,0,0,-2.4148,-2.4143,-2.4159,-2.4156,-2.4152,-2.4142,-2.4146,-2.4137,-2.4132,-2.4145,-2.4125,-2.4132,-2.4139,-2.4137,-2.4136,-2.4178,-2.4163,-2.418,-2.4208,-2.4221,-2.4226,-2.4231,-2.4247,-2.4253,-2.4183,-2.4183,-2.4183,0,-2.4173,-2.4185,-2.4168,-2.418,-2.4181,-2.4157,-2.4173,-2.4171,-2.4167,-2.4169,-2.4156,-2.4166,-2.416,-2.4179,-2.419,-2.419,-2.4194,-2.4181,-2.4227,-2.4232,-2.4236,-2.4251,-2.4257,-2.4185,-2.4185,-2.4184,-2.4184,0,-2.4217,-2.4225,-2.4238,-2.4237,-2.424,-2.4253,-2.4239,-2.4243,-2.4232,-2.4223,-2.4238,-2.4231,-2.4233,-2.4236,-2.4224,-2.4253,-2.4247,-2.4231,-2.4207,-2.4245,-2.4259,-2.4264,-2.4188,-2.4187,-2.4187,-2.4186,0,0,-2.4278,-2.4269,-2.4274,-2.4274,-2.4267,-2.4274,-2.4286,-2.4289,-2.4294,-2.4292,-2.4303,-2.431,-2.4296,-2.4296,-2.4284,-2.4295,-2.433,-2.4277,-2.4277,-2.4289,-2.4363,-2.4376,-2.4383,-2.4319,-2.432,-2.4321,-2.4364,0,-2.4318,-2.434,-2.4326,-2.435,-2.4358,-2.4336,-2.4347,-2.4345,-2.4338,-2.4344,-2.4336,-2.4342,-2.4322,-2.4322,-2.4332,-2.4324,-2.4345,-2.432,-2.433,-2.433,-2.4333,-2.439,-2.4403,-2.4444,-2.4369,-2.437,-2.4371,0,-2.4367,-2.4369,-2.4395,-2.4388,-2.4391,-2.4402,-2.4404,-2.441,-2.4407,-2.4401,-2.4402,-2.4387,-2.4399,-2.4376,-2.4393,-2.4377,-2.438,-2.4377,-2.4378,-2.4379,-2.4353,-2.4394,-2.4457,-2.4463,-2.4379,-2.4378,-2.4378,0,-2.4411,-2.442,-2.4437,-2.4437,-2.443,-2.4438,-2.4435,-2.4431,-2.4434,-2.4436,-2.4438,-2.4441,-2.4442,-2.4445,-2.4432,-2.4416,-2.4451,-2.4426,-2.4447,-2.4447,-2.4455,-2.4455,-2.4521,-2.4456,-2.4456,-2.4456,-2.4456,0,-2.4457,-2.4474,-2.4456,-2.4467,-2.4485,-2.4469,-2.4487,-2.4482,-2.4479,-2.4488,-2.4469,-2.4478,-2.4459,-2.4466,-2.4456,-2.4472,-2.4473,-2.4469,-2.4466,-2.4471,-2.4472,-2.4473,-2.4471,-2.4457,-2.4457,-2.4457,-2.4456,0,-2.4509,-2.4498,-2.4515,-2.4508,-2.4506,-2.452,-2.4514,-2.4523,-2.4515,-2.4527,-2.4529,-2.4516,-2.4524,-2.4511,-2.4516,-2.4509,-2.4533,-2.4525,-2.4534,-2.4532,-2.4554,-2.4552,-2.4623,-2.4632,-2.4561,-2.4561,-2.4562,0,-2.454,-2.4552,-2.4547,-2.4552,-2.4551,-2.4559,-2.4563,-2.4547,-2.4552,-2.4551,-2.456,-2.4566,-2.4571,-2.4584,-2.4575,-2.4579,-2.4572,-2.4597,-2.4572,-2.4578,-2.4574,-2.4574,-2.4575,-2.4602,-2.4603,-2.4603,-2.4604,0,-2.4596,-2.459,-2.4596,-2.4601,-2.4606,-2.4609,-2.461,-2.4615,-2.46,-2.4606,-2.4614,-2.4617,-2.4624,-2.463,-2.4633,-2.463,-2.4615,-2.4612,-2.4617,-2.4623,-2.4628,-2.4627,-2.4549,-2.461,-2.461,-2.4609,-2.4609,-2.4609,-2.4639,-2.465,-2.4648,-2.4656,-2.4656,-2.4658,-2.4667,-2.4661,-2.4667,-2.4672,-2.4663,-2.4673,-2.4671,-2.4673,-2.4672,-2.468,-2.4669,-2.4676,-2.4678,-2.4681,-2.4685,-2.4626,-2.468,-2.468,-2.468,-2.468,-2.468,0,-2.4695,-2.4693,-2.4701,-2.4704,-2.4711,-2.4697,-2.4698,-2.4704,-2.4714,-2.4713,-2.4719,-2.4728,-2.4735,-2.4727,-2.4733,-2.4741,-2.4734,-2.4743,-2.4743,-2.4742,-2.4694,-2.4689,-2.4748,-2.4748,-2.4748,-2.4748,-2.4748,-2.4748,-2.4725,-2.4743,-2.4738,-2.4756,-2.4754,-2.4765,-2.4767,-2.4769,-2.4769,-2.4781,-2.4787,-2.4782,-2.4779,-2.4784,-2.479,-2.4788,-2.4791,-2.4802,-2.4798,-2.4752,-2.4746,-2.4739,-2.4735,-2.4803,-2.4803,-2.4846,-2.4846,-2.4847]}]]